Total_Precipitation_Accumulation
2.03 2.21 2.16 2.05 1.97 2.06 1.98 1.83 1.63 1.65 1.59 1.39 1.23 1.24 1.27 1.28 1.26 1.37 1.49 1.39 1.41 1.64 2.06 2.35 2.45 2.38 2.32 2.31 2.25 2.15 2.02 1.88 1.76 1.58 1.44 1.27 1.14 1.07 1.06 1.07 1.07 1.04 1.02
2.56 2.72 2.67 2.50 2.29 2.29 2.23 2.13 2.07 2.12 2.03 1.94 1.76 1.62 1.50 1.55 1.50 1.54 1.71 1.74 1.61 1.64 2.03 2.51 2.75 2.76 2.67 2.64 2.47 2.27 2.20 2.16 2.10 1.96 1.82 1.62 1.41 1.31 1.25 1.20 1.19 1.15 1.11
3.02 3.09 3.10 2.84 2.63 2.58 2.67 2.59 2.50 2.48 2.25 2.15 2.07 1.97 1.81 1.67 1.62 1.65 1.84 2.10 1.99 1.97 2.11 2.22 2.39 2.56 2.73 2.91 2.93 2.76 2.56 2.42 2.34 2.25 2.14 2.00 1.81 1.62 1.52 1.46 1.41 1.33 1.27
3.12 3.21 3.22 3.11 2.94 2.82 3.02 3.15 3.08 2.98 2.81 2.74 2.57 2.31 2.03 1.93 1.90 2.01 2.11 2.28 2.48 2.42 2.41 2.26 2.15 2.27 2.60 2.88 3.05 3.09 2.92 2.66 2.51 2.47 2.41 2.32 2.12 1.94 1.76 1.68 1.63 1.55 1.44
3.48 3.52 3.45 3.42 3.36 3.37 3.37 3.20 3.32 3.21 3.20 3.08 2.67 2.44 2.14 2.05 2.14 2.12 2.23 2.28 2.42 2.45 2.48 2.32 2.21 2.21 2.40 2.74 2.92 3.14 3.14 3.05 2.92 2.78 2.68 2.61 2.48 2.26 2.03 1.88 1.78 1.67 1.56
3.88 4.05 3.98 3.87 3.86 3.82 3.63 3.57 3.56 3.39 3.22 3.10 2.67 2.42 2.19 2.06 2.04 2.10 2.12 2.10 2.09 2.07 2.10 2.20 2.39 2.25 2.32 2.44 2.50 2.73 3.00 3.18 3.08 2.96 2.87 2.82 2.67 2.44 2.16 2.02 1.93 1.85 1.77
4.67 4.67 4.45 4.17 4.03 4.03 3.96 3.93 3.77 3.56 3.29 3.14 3.02 2.68 2.22 1.96 1.95 1.92 1.91 1.91 1.89 1.92 1.99 2.08 2.12 2.10 2.10 2.16 2.13 2.27 2.52 2.83 2.96 3.02 3.05 2.96 2.84 2.67 2.42 2.21 2.10 2.04 1.97
4.90 4.83 4.83 4.73 4.48 4.28 4.09 3.92 3.85 3.68 3.36 3.22 3.15 3.01 2.56 2.16 1.81 1.59 1.59 1.57 1.60 1.76 1.78 1.78 1.88 1.97 1.99 2.05 2.06 2.19 2.33 2.49 2.71 2.83 2.81 2.75 2.69 2.71 2.69 2.55 2.38 2.25 2.17
5.13 4.98 4.83 4.58 4.40 4.27 4.11 3.91 3.72 3.60 3.36 3.22 3.12 3.16 2.88 2.48 2.00 1.67 1.49 1.41 1.39 1.49 1.55 1.61 1.65 1.73 1.84 1.91 1.94 2.08 2.17 2.19 2.36 2.52 2.58 2.60 2.55 2.52 2.53 2.54 2.51 2.46 2.36
4.75 4.51 4.37 4.24 4.05 3.75 3.51 3.36 3.25 3.10 2.97 2.83 2.80 2.70 2.57 2.41 2.38 2.15 1.85 1.69 1.62 1.58 1.58 1.56 1.58 1.67 1.72 1.83 2.00 2.06 2.02 2.02 2.17 2.25 2.30 2.38 2.44 2.49 2.51 2.56 2.55 2.52 2.51
4.14 3.88 3.72 3.54 3.31 2.95 2.58 2.46 2.52 2.60 2.58 2.50 2.47 2.46 2.43 2.30 2.25 2.21 2.08 1.91 1.81 1.71 1.65 1.70 1.74 1.74 1.71 1.73 1.79 1.95 1.93 1.78 1.89 1.97 2.10 2.20 2.26 2.35 2.41 2.45 2.51 2.52 2.54
3.54 3.17 2.86 2.56 2.31 2.13 1.91 1.85 1.88 1.97 2.14 2.25 2.36 2.37 2.35 2.24 2.20 2.23 2.15 2.10 2.01 1.88 1.74 1.65 1.67 1.69 1.68 1.69 1.69 1.85 1.65 1.58 1.57 1.62 1.74 1.85 1.89 1.96 2.06 2.19 2.35 2.47 2.60
2.79 2.48 2.18 2.04 1.88 1.75 1.66 1.62 1.60 1.58 1.67 1.82 1.95 2.08 2.17 2.17 2.15 2.20 2.29 2.29 2.12 1.99 1.87 1.74 1.64 1.61 1.62 1.63 1.64 1.72 1.55 1.45 1.38 1.37 1.35 1.40 1.44 1.51 1.66 1.83 1.98 2.12 2.25
2.06 1.78 1.55 1.42 1.36 1.37 1.33 1.36 1.40 1.41 1.43 1.48 1.56 1.72 1.86 1.92 1.96 1.96 1.98 2.06 2.11 2.03 1.84 1.72 1.66 1.57 1.47 1.38 1.39 1.38 1.23 1.25 1.15 1.13 1.13 1.14 1.16 1.17 1.21 1.27 1.36 1.45 1.52
1.40 1.22 1.10 1.07 1.01 1.02 1.07 1.07 1.10 1.16 1.23 1.27 1.27 1.34 1.43 1.51 1.59 1.67 1.74 1.78 1.90 1.94 1.81 1.60 1.54 1.44 1.28 1.15 1.18 1.01 0.95 1.00 0.91 0.86 0.84 0.86 0.88 0.90 0.94 0.99 1.05 1.10 1.14
1.01 0.94 0.90 0.83 0.75 0.71 0.73 0.79 0.85 0.90 0.95 1.02 1.05 1.07 1.14 1.19 1.29 1.39 1.50 1.57 1.58 1.64 1.65 1.45 1.27 1.17 1.10 0.97 1.01 0.88 0.88 0.89 0.75 0.73 0.70 0.70 0.75 0.82 0.85 0.88 0.90 0.92 0.93
0.73 0.67 0.62 0.59 0.58 0.56 0.60 0.67 0.71 0.74 0.77 0.82 0.89 0.94 0.98 0.98 1.04 1.10 1.12 1.15 1.26 1.35 1.39 1.27 1.13 1.06 1.00 0.92 0.88 0.89 0.87 0.81 0.72 0.74 0.71 0.70 0.71 0.71 0.73 0.74 0.74 0.77 0.83
0.60 0.54 0.48 0.47 0.47 0.48 0.50 0.53 0.55 0.58 0.66 0.72 0.75 0.79 0.82 0.83 0.87 0.90 0.93 0.95 1.03 1.13 1.21 1.23 1.15 1.09 1.02 0.95 0.90 0.91 0.76 0.64 0.64 0.67 0.62 0.58 0.58 0.59 0.60 0.61 0.60 0.60 0.62
0.58 0.52 0.46 0.44 0.41 0.39 0.40 0.40 0.43 0.46 0.54 0.60 0.64 0.69 0.72 0.73 0.72 0.69 0.74 0.81 0.88 0.97 1.11 1.14 1.06 0.98 0.92 0.86 0.89 0.81 0.73 0.80 0.60 0.56 0.53 0.48 0.47 0.46 0.47 0.47 0.48 0.47 0.47
0.46 0.44 0.42 0.41 0.38 0.35 0.34 0.34 0.35 0.39 0.44 0.47 0.48 0.53 0.59 0.63 0.63 0.65 0.65 0.76 0.84 0.97 1.05 1.06 1.00 0.91 0.86 0.82 0.93 0.91 0.85 0.82 0.67 0.48 0.49 0.43 0.42 0.41 0.42 0.42 0.42 0.40 0.39
0.41 0.37 0.35 0.35 0.31 0.27 0.25 0.26 0.30 0.36 0.43 0.42 0.42 0.42 0.43 0.47 0.56 0.59 0.59 0.67 0.79 0.93 0.95 0.95 0.94 0.91 0.85 0.89 0.92 0.87 0.89 0.84 0.73 0.58 0.59 0.51 0.50 0.55 0.58 0.54 0.48 0.46 0.40
0.37 0.33 0.31 0.33 0.31 0.24 0.23 0.23 0.25 0.32 0.41 0.43 0.41 0.38 0.35 0.33 0.38 0.47 0.49 0.57 0.70 0.80 0.86 0.90 0.90 0.90 0.87 0.91 0.95 0.93 0.94 0.95 0.92 0.69 0.68 0.60 0.53 0.65 0.67 0.63 0.55 0.44 0.39
0.40 0.37 0.36 0.38 0.40 0.33 0.23 0.19 0.21 0.29 0.42 0.41 0.39 0.41 0.36 0.34 0.40 0.48 0.48 0.46 0.52 0.55 0.64 0.80 0.91 0.94 0.99 1.07 1.15 1.11 1.07 1.07 1.05 0.83 0.86 0.80 0.66 0.72 0.60 0.55 0.59 0.49 0.42
0.46 0.44 0.43 0.44 0.47 0.37 0.24 0.17 0.19 0.29 0.38 0.32 0.33 0.38 0.45 0.46 0.40 0.41 0.46 0.51 0.56 0.57 0.57 0.62 0.82 0.88 0.89 0.98 1.08 1.12 1.12 1.08 1.04 0.99 1.01 1.02 0.76 0.71 0.62 0.80 0.81 0.67 0.54
0.49 0.49 0.49 0.52 0.54 0.42 0.28 0.21 0.23 0.32 0.38 0.35 0.33 0.31 0.32 0.35 0.34 0.39 0.48 0.62 0.66 0.70 0.56 0.59 0.70 0.76 0.78 0.84 0.90 0.98 1.13 1.22 1.19 1.07 1.00 1.01 0.88 0.76 0.77 0.99 0.96 0.92 0.75
0.48 0.43 0.47 0.55 0.53 0.44 0.30 0.25 0.26 0.30 0.36 0.41 0.45 0.43 0.34 0.31 0.33 0.37 0.50 0.66 0.74 0.74 0.77 0.92 1.04 1.03 0.97 0.95 0.91 1.00 1.19 1.26 1.27 1.22 1.04 1.03 1.05 0.97 0.99 1.05 1.12 1.05 0.96